Location: Cosy Dell
(34.2789°N, 117.4537°W)
Time: 12:21:35
(UTC+00:00)

DELTA 2 R/B (1) - Pass Details

Date: 14 July 2020
Orbit: 790 x 803 km, 39.6° (Epoch: 08 August)

Event Time Altitude Azimuth Distance (km) Brightness Sun altitude
Rises 06:11:04 0° 291° (WNW) 3,286 7.4 -28.8°
Reaches altitude 10° 06:13:34 10° 293° (WNW) 2,357 6.6 -29.1°
Enters shadow 06:18:36 68° 333° (NNW) 852 3.8 -29.5°
